Stations météo

réclame
Mon MeteoGroup
Leuchars, Grande-Bretagne (3171): Température de l'air & dewpoint: 16.01.2018 10:00:00 - 22.01.2018 10:00:00 (GMT)Leuchars, Grande-Bretagne (3171): Vitesse du vent & gusts: 16.01.2018 10:00:00 - 22.01.2018 10:00:00 (GMT)Leuchars, Grande-Bretagne (3171): Direction du vent: 16.01.2018 10:00:00 - 22.01.2018 10:00:00 (GMT)Leuchars, Grande-Bretagne (3171): reduced air pressure: 16.01.2018 10:00:00 - 22.01.2018 10:00:00 (GMT)Leuchars, Grande-Bretagne (3171): visibility: 16.01.2018 10:00:00 - 22.01.2018 10:00:00 (GMT)Leuchars, Grande-Bretagne (3171): Ensoleillement: 16.01.2018 10:00:00 - 22.01.2018 10:00:00 (GMT)Leuchars, Grande-Bretagne (3171): Quantités de précipitations: 16.01.2018 10:00:00 - 22.01.2018 10:00:00 (GMT)
Date & Time tt [°C] td [°C] ff [km/h] ff [knt] fx [km/h] fx [knt] dd ppp [hPa] vv [km] sd [min] rr [mm]
22.01.2018 10:00:00 4,4 3,1 16 9 - - W 1001,8 14 6 0,0
22.01.2018 09:00:00 2,7 2,0 22 12 - - WSW 1001,0 12 0 0,2
22.01.2018 08:00:00 2,2 1,7 18 10 - - W 1000,3 12 0 0,0
22.01.2018 07:00:00 1,3 0,9 16 9 - - W 1000,0 11 0 0,0
22.01.2018 06:00:00 1,2 0,9 16 9 - - W 999,4 12 0 0,0
22.01.2018 05:00:00 1,6 1,2 18 10 - - W 999,3 14 0 0,0
22.01.2018 04:00:00 0,5 0,5 13 7 - - WSW 999,0 13 0 0,0
22.01.2018 03:00:00 0,3 0,3 13 7 - - W 998,7 9 0 0,0
22.01.2018 02:00:00 -1,4 -1,5 4 2 - - SW 998,3 2,2 0 0,0
22.01.2018 01:00:00 -1,1 -1,3 5 3 - - N 998,3 2,9 0 0,0
22.01.2018 00:00:00 0,2 0,0 5 3 - - ENE 998,1 3,6 - 0,0
21.01.2018 23:00:00 1,1 0,9 2 1 - - N 997,9 9 0 0,0
21.01.2018 22:00:00 1,1 1,0 5 3 - - W 997,7 6 0 0,0
21.01.2018 21:00:00 0,8 0,6 4 2 - - WNW 997,7 1,0 0 0,0
21.01.2018 20:00:00 1,1 0,9 2 1 - - N 998,3 1,4 0 0,0
21.01.2018 19:00:00 1,4 1,1 5 3 - - ESE 998,2 3,4 0 1,0
21.01.2018 18:00:00 1,6 1,0 13 7 - - SSE 999,1 4,0 0 0,4
21.01.2018 17:00:00 2,0 0,8 13 7 - - SE 1000,6 16 0 0,0
21.01.2018 16:00:00 1,6 0,6 21 11 - - SE 1001,7 40 0 0,0
21.01.2018 15:00:00 1,9 -0,3 21 11 - - S 1003,7 18 0 0,0
21.01.2018 14:00:00 2,4 -1,2 9 5 - - S 1005,1 40 0 0,0
21.01.2018 13:00:00 2,4 -0,8 8 4 - - SE 1006,9 50 0 0,0
21.01.2018 12:00:00 2,3 -0,8 13 7 - - SSE 1007,4 40 0 0,0
21.01.2018 11:00:00 -1,0 -2,0 4 2 - - NNE 1008,7 50 0 0,0
21.01.2018 10:00:00 -2,4 -3,2 2 1 - - NW 1010,2 50 0 0,0
21.01.2018 09:00:00 -2,8 -3,8 4 2 - - N 1010,3 50 0 0,0
21.01.2018 08:00:00 -3,4 -4,7 4 2 - - NNE 1010,2 50 0 0,0
21.01.2018 07:00:00 -2,6 -4,8 2 1 - - E 1010,5 35 0 0,0
21.01.2018 06:00:00 -1,8 -4,6 8 4 - - W 1011,1 50 0 0,0
21.01.2018 05:00:00 -1,4 -4,4 8 4 - - W 1011,4 50 0 0,0
21.01.2018 04:00:00 -1,8 -4,2 8 4 - - W 1011,2 50 0 0,0
21.01.2018 03:00:00 -2,5 -5,0 9 5 - - WNW 1011,1 50 0 0,0
21.01.2018 02:00:00 -2,7 -5,2 11 6 - - W 1011,2 50 0 0,0
21.01.2018 01:00:00 -2,7 -4,7 15 8 - - W 1010,9 50 0 0,0
21.01.2018 00:00:00 -1,5 -4,6 16 9 - - W 1010,1 50 - 0,0
20.01.2018 23:00:00 -0,3 -4,3 11 6 - - WNW 1009,2 50 0 0,0
20.01.2018 22:00:00 -0,7 -4,2 18 10 - - W 1008,3 50 0 0,0
20.01.2018 21:00:00 -1,0 -3,6 15 8 - - W 1007,8 50 0 0,0
20.01.2018 20:00:00 0,1 -3,6 13 7 - - WNW 1007,0 50 0 0,0
20.01.2018 19:00:00 -0,1 -3,6 13 7 - - WNW 1006,2 50 0 0,0
20.01.2018 18:00:00 0,0 -3,4 11 6 - - WNW 1004,7 50 0 0,0
20.01.2018 17:00:00 -0,9 -4,0 9 5 - - W 1003,5 50 6 0,0
20.01.2018 16:00:00 1,2 -3,3 13 7 - - WNW 1002,4 45 60 0,0
20.01.2018 15:00:00 2,1 -2,7 11 6 - - W 1001,2 50 60 0,0
20.01.2018 14:00:00 1,8 -2,8 13 7 - - W 1000,3 45 60 0,2
20.01.2018 13:00:00 1,4 -2,7 13 7 - - WNW 999,4 50 54 0,0
20.01.2018 12:00:00 1,1 -2,2 9 5 - - WNW 999,2 45 36 0,0
20.01.2018 11:00:00 0,3 -1,7 9 5 - - W 999,1 50 24 0,0
20.01.2018 10:00:00 -0,8 -2,2 13 7 - - W 998,8 50 0 0,0
20.01.2018 09:00:00 -1,0 -2,3 15 8 - - W 998,4 50 0 0,0
20.01.2018 08:00:00 -1,4 -2,8 13 7 - - W 997,8 50 0 0,0
20.01.2018 07:00:00 -0,7 -2,2 13 7 - - W 997,4 50 0 0,0
20.01.2018 06:00:00 -3,3 -4,1 11 6 - - W 997,3 50 0 0,0
20.01.2018 05:00:00 -2,1 -2,9 9 5 - - WSW 997,2 45 0 0,0
20.01.2018 04:00:00 -0,2 -1,0 5 3 - - N 997,2 50 0 0,0
20.01.2018 03:00:00 -0,3 -1,0 4 2 - - N 997,3 18 0 0,0
20.01.2018 02:00:00 0,0 -0,6 21 11 - - W 997,2 20 0 0,0
20.01.2018 01:00:00 0,3 -0,4 15 8 - - WSW 997,6 27 0 0,0
20.01.2018 00:00:00 -0,4 -1,4 16 9 - - WSW 998,0 40 - 0,0
19.01.2018 23:00:00 0,7 -0,4 18 10 - - W 998,2 35 0 0,0
19.01.2018 22:00:00 -0,5 -1,6 13 7 - - WSW 998,4 30 0 0,0
19.01.2018 21:00:00 -0,2 -1,2 24 13 - - W 998,5 50 0 0,0
19.01.2018 20:00:00 -0,3 -1,1 24 13 - - W 998,5 45 0 0,0
19.01.2018 19:00:00 -0,1 -0,8 18 10 - - WSW 998,3 40 0 0,0
19.01.2018 18:00:00 0,7 -0,2 13 7 - - W 997,8 25 0 0,0
19.01.2018 17:00:00 0,7 -0,4 16 9 - - W 997,9 50 0 0,0
19.01.2018 16:00:00 0,6 -0,4 11 6 - - WSW 997,9 50 12 0,0
19.01.2018 15:00:00 2,1 0,1 22 12 - - W 997,5 50 60 0,0
19.01.2018 14:00:00 2,2 0,3 22 12 - - W 997,3 50 42 0,0
19.01.2018 13:00:00 1,2 0,7 26 14 - - WSW 997,3 45 6 0,0
19.01.2018 12:00:00 0,9 0,2 24 13 50 27 WSW 997,8 40 12 0,4
19.01.2018 11:00:00 0,8 0,1 24 13 - - WSW 998,0 30 0 0,0
19.01.2018 10:00:00 0,7 0,0 16 9 - - W 998,4 2,0 0 0,0
19.01.2018 09:00:00 0,0 -0,8 16 9 - - WSW 998,2 10 0 0,0
19.01.2018 08:00:00 0,2 -1,0 24 13 - - W 997,8 10 0 0,0
19.01.2018 07:00:00 0,1 -0,6 13 7 - - W 997,8 10 0 0,0
19.01.2018 06:00:00 -0,3 -1,2 18 10 - - WSW 998,0 10 0 0,0
19.01.2018 05:00:00 -0,2 -1,1 21 11 - - WSW 998,1 10 0 0,0
19.01.2018 04:00:00 -0,4 -1,0 16 9 - - WSW 998,0 10 0 0,0
19.01.2018 03:00:00 -0,5 -1,4 18 10 - - W 998,1 10 0 0,0
19.01.2018 02:00:00 -0,2 -1,6 15 8 - - W 998,0 10 0 0,0
19.01.2018 01:00:00 -1,1 -2,1 16 9 - - WSW 998,2 10 0 0,0
19.01.2018 00:00:00 -1,1 -2,3 13 7 - - WSW 998,0 10 - 0,0
18.01.2018 23:00:00 -1,5 -2,5 15 8 - - WSW 998,0 10 0 0,0
18.01.2018 22:00:00 -1,3 -2,4 21 11 - - WSW 998,0 10 0 0,0
18.01.2018 21:00:00 -1,7 -2,7 16 9 - - WSW 997,8 10 0 0,0
18.01.2018 20:00:00 -0,3 -1,2 16 9 - - WSW 997,4 10 0 0,0
18.01.2018 19:00:00 0,2 -0,6 11 6 - - W 997,0 10 0 0,0
18.01.2018 18:00:00 -0,1 -1,0 15 8 - - W 996,3 10 0 0,0
18.01.2018 17:00:00 0,4 -0,6 16 9 - - W 995,9 10 0 0,0
18.01.2018 16:00:00 1,3 0,1 18 10 - - W 995,3 10 30 0,0
18.01.2018 15:00:00 2,2 0,8 15 8 - - W 994,9 10 6 0,0
18.01.2018 14:00:00 2,3 0,7 21 11 - - W 994,7 10 42 0,0
18.01.2018 13:00:00 2,5 0,7 18 10 - - W 994,4 10 48 0,0
18.01.2018 12:00:00 2,5 0,5 18 10 - - WSW 994,4 10 60 0,0
18.01.2018 11:00:00 2,1 0,4 11 6 - - WSW 994,1 10 54 0,0
18.01.2018 10:00:00 0,6 -0,4 5 3 - - SW 993,5 10 12 0,0
18.01.2018 09:00:00 -0,7 -1,6 15 8 - - WSW 992,8 10 0 0,0
18.01.2018 08:00:00 -0,3 -1,3 9 5 - - SW 992,2 10 0 0,0
18.01.2018 07:00:00 -0,2 -1,1 11 6 - - WSW 991,4 10 0 0,0
18.01.2018 06:00:00 -0,3 -1,4 11 6 - - W 990,8 10 0 0,0
18.01.2018 05:00:00 -0,2 -1,6 13 7 - - WSW 989,9 10 0 0,0
18.01.2018 04:00:00 0,2 -0,4 8 4 - - W 989,1 10 0 0,0
18.01.2018 03:00:00 0,0 -0,2 9 5 - - W 988,5 10 0 0,0
18.01.2018 02:00:00 0,1 -0,4 4 2 - - NW 988,3 10 0 0,0
18.01.2018 01:00:00 0,1 -0,8 4 2 - - NNE 988,5 10 0 0,0
18.01.2018 00:00:00 1,3 0,5 9 5 - - WNW 989,0 10 - 0,0
17.01.2018 23:00:00 1,0 -0,2 13 7 - - W 990,1 10 0 0,0
17.01.2018 22:00:00 1,0 -0,1 11 6 - - W 991,2 10 0 0,0
17.01.2018 21:00:00 0,8 -0,3 16 9 - - WSW 992,3 10 0 0,0
17.01.2018 20:00:00 0,6 -0,9 13 7 - - W 993,0 10 0 0,0
17.01.2018 19:00:00 1,1 -0,5 29 16 - - WSW 993,4 10 0 0,0
17.01.2018 18:00:00 1,2 -0,4 26 14 - - W 994,0 10 0 0,0
17.01.2018 17:00:00 1,1 -0,4 22 12 - - WSW 994,4 10 0 0,0
17.01.2018 16:00:00 1,5 0,2 26 14 - - W 994,4 10 24 0,0
17.01.2018 15:00:00 2,9 0,6 26 14 - - WSW 994,1 10 60 0,0
17.01.2018 14:00:00 3,3 1,2 24 13 - - WSW 994,0 10 54 0,0
17.01.2018 13:00:00 2,5 1,2 21 11 - - W 994,1 10 60 0,0
17.01.2018 12:00:00 1,5 1,1 22 12 - - WSW 994,1 10 30 0,8
17.01.2018 11:00:00 1,3 0,3 37 20 59 32 W 994,1 3,4 0 0,2
17.01.2018 10:00:00 2,2 -0,1 42 23 59 32 W 992,6 10 0 0,0
17.01.2018 09:00:00 2,0 -2,3 34 18 - - W 991,7 28 0 0,0
17.01.2018 08:00:00 1,1 -2,1 34 18 48 26 W 990,5 10 0 0,0
17.01.2018 07:00:00 1,2 -2,1 37 20 50 27 W 989,2 10 0 0,0
17.01.2018 06:00:00 1,0 -2,0 24 13 - - W 988,0 10 0 0,0
17.01.2018 05:00:00 0,4 -1,9 28 15 - - W 986,6 10 0 0,0
17.01.2018 04:00:00 -0,8 -2,1 28 15 - - W 985,1 10 0 0,0
17.01.2018 03:00:00 -1,0 -2,3 31 17 - - W 984,1 10 0 0,0
17.01.2018 02:00:00 -0,5 -1,6 24 13 - - W 983,3 10 0 0,0
17.01.2018 01:00:00 -0,4 -1,4 26 14 - - W 982,6 10 0 0,0
17.01.2018 00:00:00 -0,4 -1,5 26 14 - - WSW 981,9 10 - 0,0
16.01.2018 23:00:00 -1,1 -2,2 18 10 - - W 981,7 10 0 0,0
16.01.2018 22:00:00 -0,5 -1,4 26 14 - - WSW 980,7 10 0 0,0
16.01.2018 21:00:00 -0,5 -1,4 24 13 - - W 980,1 10 0 0,0
16.01.2018 20:00:00 -0,1 -0,7 26 14 - - W 980,3 10 0 0,0
16.01.2018 19:00:00 0,1 -0,9 28 15 - - WSW 980,2 10 0 0,0
16.01.2018 18:00:00 -0,4 -1,0 18 10 - - WSW 980,0 10 0 0,0
16.01.2018 17:00:00 0,5 -0,3 22 12 - - WSW 980,3 4,7 0 0,0
16.01.2018 16:00:00 0,9 -0,6 21 11 - - WSW 979,9 10 0 0,0
16.01.2018 15:00:00 0,9 -1,0 34 18 48 26 WSW 980,0 10 0 0,0
16.01.2018 14:00:00 1,5 0,2 29 16 - - WSW 980,1 10 6 0,0
16.01.2018 13:00:00 1,5 -0,1 29 16 48 26 WSW 980,8 45 18 0,0
16.01.2018 12:00:00 1,6 0,6 35 19 48 26 WSW 981,0 10 12 0,0
16.01.2018 11:00:00 1,8 -0,1 28 15 - - WSW 981,4 10 24 0,0
16.01.2018 10:00:00 1,0 -0,5 22 12 - - WSW 981,5 10 6 0,0

tt = Température de l'air
td = dewpoint
ff = Vitesse du vent
fx = gusts
dd = Direction du vent
ppp = reduced air pressure
vv = visibility
sd = Ensoleillement
rr = Quantités de précipitations

stations d'obs. à proximité